Regional Weather Roundup
Issued by NWS

Home | Current Version | Previous Version | Graphics & Text | Print | Product List | Glossary On
Versions: 1 2 3 4 5 6 7 8 9 10 11 12 13 14 15 16 17 18 19 20 21 22 23 24 25 26 27 28 29 30 31 32 33 34 35 36 37 38 39 40 41 42 43 44 45 46 47 48 49 50
000
ASUS44 KMEG 011410
RWRTN
TENNESSEE HOURLY STATE WEATHER ROUNDUP
NATIONAL WEATHER SERVICE MEMPHIS TN
900 AM CDT TUE SEP 01 2015

TNZ002-004-019-021-049-052-054-088>092-011500-
WEST TENNESSEE

CITY           SKY/WX    TMP DP  RH WIND       PRES   REMARKS
MEMPHIS INTL   PTSUNNY   81  69  67 SE7       30.11S
NWS MEMPHIS      N/A     79 N/A N/A MISG        N/A
JACKSON        MOSUNNY   76  69  79 CALM      30.14R
DYERSBURG      SUNNY     75  70  83 CALM      30.14S
UNION CITY     SUNNY     79  73  83 CALM      30.12S
PARIS          SUNNY     75  68  78 CALM      30.15R
LEXINGTON      SUNNY     73  70  88 CALM      30.14S
$$

TNZ008-025-027-028-033-062-065-066-011500-
NORTH MIDDLE TENNESSEE

CITY           SKY/WX    TMP DP  RH WIND       PRES   REMARKS
NASHVILLE      PTSUNNY   79  68  69 CALM      30.16S
CLARKSVILLE    SUNNY     74  68  81 CALM      30.15S
SMYRNA         SUNNY     75  74  97 CALM      30.17S
COOKEVILLE     SUNNY     75  70  83 CALM      30.17S
CROSSVILLE     PTSUNNY   76  66  71 CALM      30.21S
$$

TNZ061-075-076-078-094-096-097-011500-
SOUTH MIDDLE TENNESSEE

CITY           SKY/WX    TMP DP  RH WIND       PRES   REMARKS
FAYETTEVILLE   SUNNY     75  68  78 CALM      30.17R
TULLAHOMA      PTSUNNY   75  66  73 CALM      30.19R
WINCHESTER     SUNNY     75  68  78 CALM      30.17S
MCMINNVILLE    SUNNY     73  73 100 CALM      30.18R
COLUMBIA       SUNNY     75  75 100 CALM      30.15S
SHELBYVILLE    SUNNY     79  72  78 CALM      30.18R
$$

TNZ017-018-042-046-047-011500-
NORTHEAST TENNESSEE

CITY           SKY/WX    TMP DP  RH WIND       PRES   REMARKS
TRI CITIES     MOSUNNY   73  65  75 CALM      30.20S
ELIZABETHTON   SUNNY     72  64  78 CALM      30.21S
$$

TNZ012-013-036-069-073-074-011500-
CENTRAL EAST TENNESSEE

CITY           SKY/WX    TMP DP  RH WIND       PRES   REMARKS
KNOXVILLE      MOSUNNY   74  69  85 N5        30.17R
OAK RIDGE      SUNNY     75  67  76 E3        30.18S
GATLINBURG     SUNNY     73  63  68 E3        30.17S
MORRISTOWN     SUNNY     75  66  73 NE5       30.20S
$$

TNZ083-085-099-011500-
SOUTHEAST TENNESSEE

CITY           SKY/WX    TMP DP  RH WIND       PRES   REMARKS
CHATTANOOGA    MOSUNNY   76  67  73 CALM      30.17R
$$

SKY/WX REPORTED AS FAIR MEANS FEW OR NO CLOUDS BELOW
12 THOUSAND FEET.




USA.gov is the U.S. government's official web portal to all federal, state and local government web resources and services.